Theta_e
292 294 297 298 300 301 303 303 303 303 302 302 299 297 294 293 292 292 292 293 294 294 294 293 291 291 290 289 292 295 291 289 290 295 296 296 295 297 293 293 289 289 292
291 293 296 297 298 300 302 304 304 305 304 302 298 295 292 290 289 290 290 290 291 291 291 290 289 288 288 287 287 287 288 287 286 290 291 290 294 291 290 288 287 285 287
290 291 294 296 297 298 301 304 304 303 299 296 294 291 290 288 287 287 287 288 289 289 289 288 288 287 287 286 285 285 285 283 285 285 288 283 281 286 291 285 284 284 284
291 293 294 294 295 297 302 302 300 297 295 295 292 290 288 286 284 285 286 286 287 287 287 287 287 286 285 285 285 285 284 283 281 283 285 282 282 280 279 281 282 283 283
291 292 294 295 293 295 297 297 296 296 294 292 290 288 286 286 286 285 285 285 285 285 285 285 285 285 285 283 283 282 282 282 281 281 281 281 280 280 277 276 277 280 281
291 292 292 291 290 291 292 292 290 289 290 290 288 287 286 285 284 284 283 283 284 284 284 284 283 283 283 282 282 282 281 281 281 281 281 280 278 277 277 276 276 276 278
289 290 289 289 288 287 287 287 288 287 288 288 287 286 286 286 284 284 283 283 282 282 282 282 281 281 282 282 281 281 281 280 280 280 280 281 280 281 279 278 276 275 277
290 289 288 288 287 287 286 286 286 286 287 287 286 287 287 286 286 285 284 283 282 282 282 281 281 281 281 281 281 280 280 279 279 278 279 279 279 280 279 278 276 274 275
288 287 286 287 286 285 285 286 286 285 286 286 286 286 286 285 285 283 283 282 282 282 281 280 280 280 280 280 280 279 278 278 278 277 278 278 278 279 278 279 278 276 272
287 286 286 286 286 286 284 284 285 285 285 285 286 285 284 284 283 283 282 281 281 281 280 279 279 279 279 279 278 277 277 277 277 277 277 277 277 277 277 277 277 276 274
287 287 286 285 285 284 284 284 284 284 284 285 284 284 283 283 283 282 281 280 280 280 279 279 279 278 278 277 277 276 276 276 276 276 276 276 276 275 274 274 275 274 273
289 287 287 285 284 284 283 283 283 283 284 284 284 283 283 283 282 281 280 280 279 279 279 279 278 278 277 277 276 276 276 276 276 276 275 275 277 274 274 273 273 273 273
288 287 286 284 284 284 283 283 283 284 284 284 283 282 282 281 281 280 280 279 278 278 278 278 277 277 277 276 276 276 276 275 275 275 275 275 274 274 273 272 271 272 274
288 287 286 286 285 285 284 283 283 284 283 283 283 282 281 281 281 280 279 279 278 277 277 277 277 276 276 276 276 276 275 275 275 276 275 275 274 274 273 273 273 273 272
288 288 287 286 285 284 283 283 284 284 284 283 282 282 282 281 280 280 279 278 278 277 277 276 275 275 275 275 275 276 275 275 275 275 276 275 275 277 277 275 273 273 271
289 289 288 287 285 285 284 283 284 284 284 283 282 282 281 281 280 280 279 278 277 277 276 275 274 273 275 279 280 277 276 276 275 274 274 275 274 275 278 278 279 278 272
290 290 288 287 286 286 286 284 284 284 283 283 282 281 282 281 281 281 279 278 277 275 275 274 274 274 274 280 281 280 276 275 275 274 275 275 275 274 274 275 277 278 278
291 290 290 289 287 286 286 285 283 283 283 282 282 282 281 281 280 279 279 277 275 275 274 274 274 273 274 280 281 280 276 275 274 274 274 274 274 274 274 273 273 274 275
292 292 291 290 288 286 286 284 282 283 282 282 282 282 282 281 280 279 278 277 276 274 274 273 272 272 272 280 281 280 275 274 274 274 274 274 273 276 278 275 273 272 273
290 289 289 289 288 287 285 284 283 282 282 282 282 283 283 282 280 280 278 277 276 276 274 274 272 271 270 278 280 279 274 268 272 272 274 276 276 277 279 276 270 268 270
288 289 289 288 288 287 285 284 282 281 283 282 281 281 281 281 281 279 276 273 274 273 272 271 271 270 270 270 279 280 275 272 270 270 271 273 277 278 279 279 275 269 274
285 285 284 283 283 284 284 281 281 282 279 279 279 280 280 280 278 277 273 273 272 271 270 269 268 270 270 272 276 278 279 278 270 269 272 273 277 278 279 279 278 277 274
283 282 283 281 281 280 282 280 278 278 277 277 277 276 275 276 276 275 271 269 270 271 270 269 270 269 269 270 276 277 278 279 277 275 275 277 278 279 277 275 276 272 264
278 277 278 277 275 274 276 274 275 275 274 273 271 270 272 268 267 270 271 271 269 269 269 268 268 264 266 269 269 270 271 276 277 276 273 275 276 275 274 268 270 268 265
276 276 276 274 273 272 271 269 271 272 271 269 269 269 267 267 267 267 267 268 266 270 265 263 264 263 265 269 272 270 267 267 270 269 261 262 266 265 265 263 263 263 263
273 273 271 273 269 270 267 264 265 269 271 269 269 268 267 266 266 266 265 274 274 275 277 276 270 265 273 275 276 277 278 278 278 272 269 266 267 267 265 263 262 262 262
Wind_Speed
8 8 7 7 7 7 8 9 10 8 7 7 7 5 5 6 8 7 8 8 7 8 8 7 7 7 8 5 6 3 7 8 5 4 4 4 7 8 7 5 8 11 8
9 8 8 8 7 8 9 11 11 10 7 5 6 5 5 6 6 7 9 8 8 7 8 7 7 6 7 9 7 5 3 5 8 3 2 3 3 4 4 6 7 7 6
16 11 9 8 8 8 10 11 10 8 7 11 10 10 9 5 6 6 7 6 8 8 9 8 7 7 6 7 6 5 6 4 5 10 4 4 1 4 3 4 6 10 5
11 13 11 8 8 8 8 7 9 10 10 11 11 12 8 9 2 5 5 7 7 8 8 8 8 8 6 7 6 5 5 4 5 3 5 6 3 2 5 4 4 7 7
18 17 15 11 7 7 7 8 9 9 9 10 8 9 10 8 7 7 10 8 7 7 8 7 8 8 6 6 7 7 8 4 4 4 2 3 3 4 3 4 5 4 4
15 14 12 11 8 6 7 8 9 7 8 10 11 12 15 13 10 8 8 6 5 5 7 9 8 6 6 6 6 6 7 6 6 4 4 3 3 2 3 2 4 3 4
16 16 17 15 11 10 8 7 9 8 8 12 12 12 13 13 13 11 9 10 6 5 6 7 6 4 5 6 6 6 6 5 5 5 3 3 3 2 1 0 3 3 4
16 17 17 14 12 11 10 8 8 9 10 12 12 11 11 8 8 8 8 6 7 6 6 6 6 6 7 6 6 4 4 5 5 6 5 3 3 3 2 1 1 3 3
17 17 15 14 13 11 11 12 11 9 10 11 10 10 8 9 8 8 7 7 7 6 6 6 7 7 7 6 6 4 5 5 4 4 4 3 2 3 3 2 1 0 4
13 15 15 14 12 12 8 9 9 12 10 10 10 10 9 8 9 9 10 9 7 6 7 7 7 6 6 6 6 5 4 5 2 3 4 3 2 3 2 2 2 0 2
15 14 13 12 12 10 10 11 11 11 11 10 8 10 9 10 9 10 9 9 8 8 7 7 7 6 6 6 6 6 5 5 3 2 3 2 2 1 2 2 1 1 1
15 14 14 13 13 14 12 13 11 12 11 11 10 10 10 10 10 9 9 7 9 7 7 7 7 7 6 6 6 6 4 4 3 2 1 1 0 2 2 2 2 2 3
13 13 13 15 16 15 14 13 12 12 11 11 11 10 10 10 9 8 8 8 8 7 7 7 7 6 6 6 5 5 5 4 3 3 3 3 2 4 3 2 3 2 4
16 15 15 16 15 14 14 13 13 12 12 12 12 12 11 10 10 9 9 9 8 8 7 6 6 6 6 5 5 5 5 4 3 3 4 3 5 6 5 4 4 4 3
17 18 18 17 15 15 15 14 14 14 13 13 12 12 10 10 10 9 9 8 8 7 7 7 6 6 5 4 5 5 4 4 4 4 4 5 6 9 8 4 4 4 4
19 19 17 17 17 17 17 15 14 14 14 14 14 11 12 12 11 10 10 9 8 7 7 7 7 7 4 10 12 7 4 4 4 4 5 5 6 8 11 11 13 10 4
20 20 20 17 16 17 16 16 15 13 13 13 11 12 13 12 12 10 10 10 10 7 8 7 7 7 6 13 13 13 5 5 4 5 5 5 5 6 5 10 14 13 15
17 17 16 15 14 14 13 12 13 14 15 13 11 12 12 12 10 10 12 9 8 10 8 8 7 7 7 14 16 15 5 5 6 6 7 7 7 6 6 7 9 10 7
13 14 13 14 15 17 16 15 14 15 14 14 13 13 14 13 13 14 13 10 9 7 8 5 8 8 6 16 17 13 5 6 7 6 7 8 7 11 14 9 8 5 5
10 10 10 9 15 14 15 16 15 14 16 15 14 13 14 14 14 14 12 8 7 9 7 8 8 9 8 17 17 13 4 5 6 6 8 13 12 16 17 8 5 4 5
8 8 11 13 12 13 15 14 12 15 11 9 8 9 11 13 12 10 7 7 9 6 7 7 6 8 9 9 18 17 6 7 6 6 6 6 15 16 16 17 4 5 10
8 7 9 8 7 9 11 9 10 7 7 8 9 10 10 8 7 10 7 6 8 8 8 7 5 6 6 11 15 17 20 15 7 6 6 6 15 17 18 15 8 14 11
7 6 10 9 6 6 8 10 5 7 7 8 8 7 6 7 8 10 8 5 7 8 7 7 7 5 4 5 16 19 20 20 13 6 10 17 18 20 13 6 11 7 0
6 5 9 8 5 3 4 4 5 6 7 6 6 5 7 5 4 3 5 6 7 6 5 6 6 2 3 5 5 6 7 13 13 14 8 9 13 12 10 3 4 3 3
4 5 7 6 4 5 4 2 4 6 5 4 4 4 4 5 4 2 4 4 2 6 4 4 4 4 4 5 10 9 6 6 10 8 2 2 4 4 3 2 3 3 3
3 5 5 7 4 6 5 3 2 5 7 5 4 4 4 3 4 4 0 7 9 11 13 12 9 4 10 10 12 15 18 19 21 9 10 8 8 8 6 5 5 3 4
Wind_Direction
168 159 155 153 147 144 137 141 137 142 133 130 119 99 97 88 76 68 54 55 59 60 72 74 70 58 63 57 52 76 55 31 5 77 32 44 55 67 55 59 45 32 27
161 161 160 162 173 160 153 154 152 156 157 130 110 106 108 85 89 82 67 57 60 66 78 79 72 60 72 57 47 41 69 47 20 91 83 22 342 32 62 56 44 27 23
166 164 172 175 170 166 166 161 161 152 121 116 110 106 101 88 91 76 79 57 70 72 79 76 79 71 72 71 55 43 60 97 28 40 93 55 353 331 345 36 46 20 12
164 161 169 174 175 175 162 144 132 129 129 131 132 138 131 130 126 111 101 86 74 80 81 81 79 77 75 73 69 52 56 67 57 28 42 57 101 60 332 346 21 1 3
163 168 172 169 169 152 140 134 132 134 139 135 130 125 117 121 125 109 105 93 82 79 80 85 82 76 70 69 72 61 62 55 87 76 33 38 61 62 87 293 322 348 339
167 162 157 147 155 151 140 142 134 139 141 137 136 137 137 138 132 128 120 119 113 104 89 87 84 81 87 84 83 78 74 73 71 67 61 71 70 35 33 319 301 304 288
162 161 161 166 161 163 156 151 146 147 137 134 134 139 142 143 144 144 144 139 126 108 105 96 98 108 110 103 93 84 76 72 83 82 80 70 70 67 59 10 299 302 297
169 168 166 163 164 166 163 157 151 145 144 139 139 142 146 146 145 144 140 125 124 126 126 126 123 119 107 91 87 84 87 86 85 83 68 77 59 69 63 43 348 318 304
169 166 164 167 169 167 169 163 155 150 146 142 139 143 142 143 142 130 122 127 124 131 134 133 122 100 93 102 107 98 90 86 77 80 69 73 52 45 37 27 42 193 311
166 169 170 168 170 172 163 153 157 157 150 139 143 143 140 134 134 133 135 139 141 131 133 124 114 113 113 111 106 103 98 97 71 87 73 53 46 39 28 10 2 354 227
176 173 172 169 167 161 163 164 161 154 149 145 136 140 143 142 138 141 146 152 140 145 141 135 131 131 126 125 119 125 120 117 112 96 81 52 32 37 319 347 318 266 225
176 173 170 162 165 172 173 174 166 159 159 153 148 151 149 144 143 150 157 152 147 147 140 140 137 142 140 141 139 135 143 148 161 150 120 247 321 300 291 245 266 260 246
168 168 170 173 177 180 178 174 169 165 161 155 154 152 153 151 153 156 158 157 145 148 144 144 153 151 155 153 150 157 168 181 181 192 210 238 251 261 238 228 269 249 285
175 177 180 185 184 180 177 174 172 170 165 161 161 163 164 162 164 165 164 161 157 152 156 159 157 163 162 159 168 176 190 186 210 225 229 240 243 245 240 260 251 260 252
188 191 188 184 181 179 177 176 179 173 169 167 169 174 166 163 163 167 171 163 160 166 161 154 161 169 170 174 190 197 190 207 232 242 247 236 237 240 259 253 237 237 258
198 196 189 184 185 183 183 179 178 176 171 176 181 170 169 172 176 174 171 168 165 167 158 169 169 183 183 201 204 188 199 212 223 241 244 241 243 261 272 277 286 277 263
195 192 190 186 183 186 181 183 177 165 176 181 176 174 176 178 181 174 170 175 178 165 178 177 177 193 195 208 211 215 205 212 220 230 244 249 242 235 232 270 280 284 285
191 187 180 181 178 169 171 165 165 172 183 186 180 178 174 181 174 174 185 178 176 184 182 186 190 191 206 214 219 219 205 218 228 234 242 242 247 235 248 253 256 259 251
187 182 179 168 160 166 170 168 169 177 181 191 187 177 178 181 179 188 189 186 179 181 192 182 191 200 208 217 221 220 198 221 237 237 238 238 246 252 266 269 264 249 268
159 152 153 151 161 169 162 166 180 179 191 187 186 180 185 185 188 192 187 178 185 196 188 203 200 202 214 220 224 223 173 214 236 239 246 246 248 252 255 260 237 271 284
145 132 148 168 169 154 162 178 170 193 184 166 159 168 182 189 192 184 174 170 186 173 194 204 201 207 202 213 228 229 210 222 230 230 236 240 258 266 269 271 212 222 296
113 108 117 116 113 130 142 143 178 172 144 143 159 176 183 182 172 176 175 173 174 188 202 206 222 222 205 205 231 236 238 236 220 223 234 234 255 263 267 271 268 291 318
122 111 127 123 123 135 147 164 176 140 140 152 177 177 164 175 174 179 174 158 178 198 210 210 230 230 190 206 238 238 247 250 249 228 231 245 253 259 272 275 286 298 121
125 118 116 118 127 126 95 93 143 143 142 160 166 151 168 160 139 128 158 176 185 201 206 205 227 183 180 215 213 232 249 255 250 254 270 262 256 223 237 190 261 248 216
96 117 132 130 131 109 114 120 134 131 136 126 143 148 134 146 137 108 162 169 187 187 185 201 176 182 221 223 225 220 225 230 242 248 258 216 246 239 230 236 224 230 230
110 95 89 116 125 117 104 71 124 141 141 144 152 157 146 141 145 152 135 229 215 221 225 222 202 221 234 241 247 253 258 255 239 234 238 228 218 219 212 215 226 214 225